Home > Weather > Sheboygan > Past weeks

Flag for U.S.A. Weather for the Past 2 Weeks in Sheboygan, Wisconsin, U.S.A.

Now
15 °F

Overcast.


Feels Like: -1 °F
Forecast: 5 / 15 °F
Wind: 16 mph from Northwest

Location: Sheboygan County Memorial Airport

Current Time: Feb 12, 2016 at 6:41:05 AM

Latest Report: Feb 12, 2016 at 5:53 AM


Visibility: 10 mi

Pressure: 30.13 "Hg

Humidity: 58%

Dew point: 3 °F

Location of SheboyganLocation

Historic Weather in Sheboygan — Graph

°F

Sheboygan Temperature Yesterday

Maximum temperature yesterday: 16 °F (at 10:53 PM)
Minimum temperature yesterday: 2 °F (at 3:53 AM)
Average temperature yesterday: 9 °F

High & Low Weather Summary for the Past Weeks

 TemperatureHumidityPressure
High41 °F (Feb 7, 1:53 PM)100% (Feb 2, 5:53 PM)30.38 "Hg (Feb 2, 5:53 PM)
Low2 °F (Feb 11, 3:53 AM)48% (Feb 10, 1:53 PM)29.45 "Hg (Feb 3, 3:53 AM)
Average26 °F74%29.91 "Hg
* Reported Jan 28 5:00 AM — Feb 12 4:53 AM, Sheboygan, Weather by CustomWeather, © 2016

Note: Actual official high and low records may vary slightly from our data, if they occured in-between our weather recording intervals... More about our weather records

Advertising

Sheboygan Weather History for the Previous 24 Hours

 ConditionsComfort  
Time TempWeatherWind HumidityBarometerVisibility
4:53 AM
Fri, Feb 12
15 °FOvercast.14 mph56%30.12 "Hg10 mi
3:53 AM15 °FOvercast.8 mph56%30.13 "Hg10 mi
2:53 AM16 °FOvercast.15 mph53%30.13 "Hg10 mi
1:53 AM16 °FOvercast.15 mph51%30.16 "Hg10 mi
12:53 AM16 °FOvercast.12 mph53%30.17 "Hg10 mi
11:53 PM
Thu, Feb 11
16 °FOvercast.13 mph51%30.20 "Hg10 mi
10:53 PM16 °FOvercast.13 mph49%30.22 "Hg10 mi
9:53 PM15 °FOvercast.12 mph51%30.24 "Hg10 mi
8:53 PM14 °FOvercast.9 mph56%30.25 "Hg10 mi
7:53 PM12 °FOvercast.8 mph58%30.28 "Hg10 mi
6:53 PM10 °FClear.6 mph58%30.28 "Hg10 mi
5:53 PM11 °FClear.7 mph59%30.28 "Hg10 mi
4:53 PM13 °FSunny.8 mph59%30.28 "Hg10 mi
2:53 PM15 °FSunny.10 mph51%30.29 "Hg10 mi
1:53 PM15 °FSunny.14 mph53%30.30 "Hg10 mi
12:53 PM14 °FSunny.9 mph56%30.31 "Hg10 mi
11:53 AM13 °FSunny.10 mph56%30.33 "Hg10 mi
10:53 AM11 °FSunny.7 mph59%30.33 "Hg10 mi
9:53 AM8 °FSunny.8 mph63%30.33 "Hg10 mi
8:53 AM5 °FSunny.10 mph66%30.33 "Hg10 mi
7:53 AM2 °FSunny.7 mph72%30.32 "Hg10 mi
6:53 AM2 °FClear.8 mph69%30.31 "Hg10 mi
Weather by CustomWeather, © 2016

See weather overviewHow to use our weather pages